www.pogodaiklimat.ru

Погода и климат >> Архив погоды >> Иран >> Kahnuj


ПОГОДА в Kahnuj

  • Прогноз погоды в Kahnuj
  • Монитор погоды в Kahnuj
  • Климат города

АРХИВ ПОГОДЫ в Kahnuj

Время (UTC), дата Ветер
(напр.,м/с)
 
Видим.   Явления Облачность Т
(С)
Тd
(С)
f
(%)
Тe
(С)
Тes
(С)
Комфортность P
(гПа)
Po
(гПа)
Тmin
(С)
Tmax
(С)
R
(мм)
R24
(мм)
S
(см)
03 14.11 штиль 0 10 км ясно +17.9 +6.3 47 +18 +18 1009.9 956.8 +17.0
06 14.11 ЮВ 4 10 км ясно +24.2 +6.7 32 +24 +29 комфорт 1012.0 959.3
09 14.11 ЮВ 4 10 км ясно +26.9 +7.1 28 +26 +33 жарко 1010.0 957.2
12 14.11 ЮВ 3 10 км ясно +27.8 +7.0 27 +27 +29 жарко 1008.5 955.8
15 14.11 штиль 0 10 км ясно +23.2 +5.6 32 +24 +24 комфорт 1009.9 956.7 +28.0
18 14.11 штиль 0 10 км ясно +21.0 +4.9 35 +21 +21 комфорт 1011.0 958.1
21 14.11 ЮВ 5 10 км ясно +17.0 +4.7 44 +16 +16 1011.1 957.9
00 15.11 штиль 0 10 км ясно +15.7 +4.3 47 +16 +16 1011.3 950.8
03 15.11 штиль 0 10 км ясно +15.6 +3.7 45 +16 +16 1012.9 959.3 +14.5
06 15.11 В 2 10 км 5/0
[Cs]
+24.6 +5.6 29 +24 +30 комфорт 1014.8 961.7
09 15.11 СВ 2 10 км 4/0
[Ci sp]
+28.2 +6.1 25 +27 +36 жарко 1012.8 959.8
12 15.11 В 4 10 км 5/0
[Cs]
+30.0 +6.3 22 +29 +30 жарко 1010.9 958.0
15 15.11 С 3 10 км 5/0
[Cs]
+25.9 +6.3 29 +26 +26 жарко 1012.5 959.3 +30.8
18 15.11 штиль 0 10 км 4/0
[Ci sp]
+21.5 +5.9 36 +22 +22 комфорт 1013.4 960.5
21 15.11 штиль 0 10 км 3/0
[Ci sp]
+22.6 +7.6 38 +24 +24 комфорт 1012.0 959.6
00 16.11 штиль 0 10 км 3/0
[Ci sp]
+20.9 +9.3 47 +22 +22 комфорт 1012.2 959.8
03 16.11 ЮЗ 2 10 км 5/0
[Cs]
+18.6 +8.2 51 +20 +20 1013.9 960.9 +17.2
06 16.11 ЮЗ 3 10 км 8/0
[Cs]
+24.7 +9.4 38 +25 +30 комфорт 1015.5 962.5
09 16.11 ЮЗ 4 10 км 8/0
[Cs]
+30.4 +8.8 26 +30 +35 жарко 1012.3 960.1
12 16.11 ЮЗ 4 10 км 6/0
[Cs]
+31.6 +7.8 23 +30 +31 жарко 1010.6 958.4
15 16.11 ЮЗ 6 10 км 6/0
[Cs]
+28.1 +8.8 30 +28 +28 жарко 1012.2 959.4 +31.9
18 16.11 ЮЗ 4 10 км 5/0
[Cs]
+25.6 +8.6 34 +26 +26 жарко 1012.9 960.4
21 16.11 Ю 3 10 км ясно +23.2 +7.3 36 +24 +24 комфорт 1011.9 959.6
00 17.11 З 3 10 км ясно +21.7 +6.2 37 +22 +22 комфорт 1011.0 958.8
03 17.11 ЮЗ 4 10 км 6/0
[Ac trans Cs]
+21.0 +5.7 37 +22 +22 комфорт 1011.8 959.2 +20.6
06 17.11 З 4 10 км 6/1 1200 м
[Sc Ac lent]
+25.9 +8.8 34 +26 +28 жарко 1012.6 960.2
09 17.11 ЮЗ 4 10 км 6/1 1200 м
[Sc Ac lent]
+30.7 +9.7 27 +30 +33 жарко 1009.6 957.6
12 17.11 ЮЗ 4 10 км 6/1 1200 м
[Sc As trans]
+31.7 +8.4 24 +31 +31 жарко 1007.6 955.7
15 17.11 З 5 10 км ясно +28.4 +9.6 31 +28 +28 жарко 1008.6 956.2 +31.9
18 17.11 ЮЗ 4 10 км ясно +25.6 +13.1 46 +28 +28 жарко 1009.9 957.7
21 17.11 штиль 0 10 км ясно +22.5 +13.5 57 +26 +26 жарко 1009.3 957.3
00 18.11 З 3 10 км ясно +21.1 +15.0 68 +24 +24 комфорт 1009.0 957.0
03 18.11 штиль 0 10 км 3/0
[Ci fib]
+19.0 +13.4 70 +20 +20 1010.9 958.4 +19.0
06 18.11 штиль 0 10 км ясно +28.1 +10.2 33 +29 +37 жарко 1011.8 959.7
09 18.11 ЮВ 4 10 км ясно +29.4 +7.5 25 +28 +35 жарко 1009.3 957.1
12 18.11 Ю 3 10 км ясно +30.3 +6.8 23 +29 +30 жарко 1007.8 955.6
15 18.11 штиль 0 10 км ясно +24.7 +5.1 28 +24 +24 комфорт 1009.3 956.4 +30.9
18 18.11 штиль 0 10 км ясно +22.2 +4.6 32 +22 +22 комфорт 1010.4 958.0
21 18.11 штиль 0 10 км ясно +18.0 +3.9 39 +18 +18 1010.1 957.6
00 19.11 штиль 0 10 км ясно +15.4 +4.1 47 +15 +15 1010.2 957.3
03 19.11 штиль 0 10 км ясно +13.5 +5.3 58 +13 +13 1012.3 958.7 +13.5
06 19.11 СВ 3 10 км ясно +24.4 +5.1 29 +24 +29 комфорт 1013.4 960.5
09 19.11 В 2 10 км ясно +28.5 +7.2 26 +28 +37 жарко 1011.4 958.6
12 19.11 В 3 10 км ясно +29.8 +5.5 22 +28 +30 жарко 1009.7 956.9
15 19.11 штиль 0 10 км ясно +23.6 +4.4 29 +23 +23 комфорт 1011.5 957.8 +29.9
18 19.11 штиль 0 10 км ясно +19.4 +4.5 37 +20 +20 1011.5 958.4
21 19.11 ЮЗ 3 10 км ясно +17.2 +3.8 41 +17 +17 1010.7 958.2
00 20.11 штиль 0 10 км ясно +18.4 +7.5 49 +19 +19 1010.6 958.0
03 20.11 З 2 10 км 1/0
[Ci fib]
+16.2 +10.7 70 +16 +16 1012.8 959.4 +14.2
06 20.11 ЮЗ 3 10 км 3/0
[Ci sp]
+23.9 +14.7 56 +27 +31 жарко 1013.2 960.1
09 20.11 ЮЗ 6 10 км 6/3 1200 м
[Cu hum Cs]
+27.6 +12.5 39 +29 +31 жарко 1010.7 957.9
12 20.11 ЮЗ 6 10 км 5/3 1200 м
[Cu hum Cs]
+27.8 +11.1 35 +29 +29 жарко 1008.7 956.1
18 20.11 З 2 10 км 9/5 1200 м
[Sc diur, vesp As op]
+22.9 +13.5 55 +26 +26 жарко 1011.0 958.4
21 20.11 З 6 10 км 9/5 1200 м
[Sc diur, vesp As op]
+21.7 +12.5 56 +24 +24 комфорт 1010.0 957.6

 

Местоположение метеостанции Kahnuj (Иран): широта 27.97 долгота 57.70 высота над уровнем моря 470 м.

В архиве по умолчанию представлена погода в Kahnuj за последнюю неделю. Архивные данные за месяц целиком и за предыдущие месяцы, начиная с января 2011 года, Вы можете получить, выбрав интересующий диапазон дат из раскрывающегося списка и нажав кнопку "Ввод!".


*Определитесь, кто Вы:
робот инопланетянин человек

Внимание! Время в таблицах - всемирное. Для получения местного времени необходимо прибавить поправку, которая в Kahnuj равна 3.5 ч.

Смотрите также архив погоды в соседних городах и на ближайших метеорологических станциях:

Погода в Bam (Иран) (143 км)
Погода в Bandarabbass (Иран) (155 км)
Погода в Baft (Иран) (178 км)
Погода в Khasab (Оман) (243 км)
Погода в Khasab Airport (Оман) (248 км)
Погода в Sirjan (Иран) (255 км)
Погода в Jask (Иран) (260 км)
Погода в Kerman (Иран) (263 км)
Погода в Diba (Оман) (298 км)
Погода в Iranshahr (Иран) (308 км)

Пояснения к столбцам:

Ветер - указаны скорость ветра в м/с - средняя за 10 мин, порывы в срок и между сроками (в фигурных скобках) и направление, откуда дует ветер: С - северный, СВ - северо-восточный, В - восточный, ЮВ - юго-восточный, Ю - южный, ЮЗ - юго-западный, З - западный, СЗ - северо-западный.
Видимость - горизонтальная дальность видимости в метрах или километрах. При видимости от 1 до 10 км при отсутствии осадков обычно наблюдается дымка, при ухудшении видимости до 1 км и менее - туман. В сухую погоду видимость может ухудшаться дымом, пылью или мглою.
Явления - указаны атмосферные явления, наблюдавшиеся в срок или в последний час перед сроком; фигурными скобками обозначены явления, наблюдавшиеся между сроками (за 1-3 часа до срока); квадратными скобками обозначены град или гололедные отложения с указанием их диаметра в мм.
Облачность - указаны через наклонную черту общая и нижняя облачность в баллах и высота нижней границы облаков в метрах; квадратными скобками обозначены формы облаков: Ci - перистые, Cs - перисто-слоистые, Cc - перисто-кучевые, Ac - высококучевые, As - высокослоистые, Sc - слоисто-кучевые, Ns - слоисто-дождевые, Cu - кучевые, Cb - кучево-дождевые. Подробнее классификацию облаков см. в Атласе облаков (PDF).
T - Температура воздуха - температура, измеренная на высоте 2 м над землей.
Td - Температура точки росы - температура, при понижении до которой содержащийся в воздухе водяной пар достигнет насыщения.
f - Относительная влажность воздуха - влажноcть воздуха, измеренная на высоте 2 м над землей.
Te - Эффективная температура - температура, которую ощущает одетый по сезону человек в тени. Характеристика душности погоды. При расчете учитывается влияние влажности воздуха и скорости ветра на теплоощущения человека.
Tes - Эффективная температура на солнце - температура, которую ощущает человек, с поправкой на солнечный нагрев. Характеристика знойности погоды. Зависит от высоты солнца над горизонтом, облачности и скорости ветра. Ночью, в пасмурную погоду, а также при ветре 12 м/с и более поправка равна нулю.
P - Атмосферное давление - приведенное к уровню моря атмосферное давление.
Po - Атмосферное давление - измеренное на уровне метеостанции атмосферное давление.
Tmin - Минимальная температура - минимум температуры воздуха на высоте 2 м над землей.
Tmax - Максимальная температура - максимум температуры воздуха на высоте 2 м над землей.
R - Количество осадков - Количество выпавших осадков за период времени, мм. При наведении курсора мыши на число - период времени, за который выпало указанное количество осадков.
R24 - Количество осадков - Количество выпавших осадков за 24 часа, мм.
S - Снежный покров - Высота снежного покрова, см. При наведении курсора мыши на число - состояние снежного покрова и степень покрытия местности в баллах.